Time,TemperatureF,DewpointF,PressureIn,WindDirection,WindDirectionDegrees,WindSpeedMPH,WindSpeedGustMPH,Humidity,HourlyPrecipIn,Conditions,Clouds,dailyrainin,SoftwareType,DateUTC
2013-05-21 00:00:00,53.9,49.5,29.60,West,269,9.0,17.0,85,0.00,,,0.23,Wunderground v.1.15,2013-05-21 05:00:00,
2013-05-21 00:05:00,53.9,49.5,29.60,West,264,9.0,17.0,85,0.00,,,0.23,Wunderground v.1.15,2013-05-21 05:05:00,
2013-05-21 00:10:00,53.9,49.5,29.60,West,277,9.0,17.0,85,0.00,,,0.23,Wunderground v.1.15,2013-05-21 05:10:00,
2013-05-21 00:20:00,53.9,49.2,29.61,West,261,10.0,10.0,84,0.00,,,0.23,Wunderground v.1.15,2013-05-21 05:20:00,
2013-05-21 00:30:00,53.9,49.2,29.61,West,262,10.0,17.0,84,0.00,,,0.23,Wunderground v.1.15,2013-05-21 05:30:00,
2013-05-21 00:40:00,53.9,49.2,29.61,West,275,10.0,17.0,84,0.00,,,0.23,Wunderground v.1.15,2013-05-21 05:40:00,
2013-05-21 00:45:00,53.8,48.8,29.61,West,269,11.0,17.0,83,0.00,,,0.23,Wunderground v.1.15,2013-05-21 05:45:00,
2013-05-21 00:50:00,53.8,48.8,29.61,West,279,11.0,11.0,83,0.00,,,0.23,Wunderground v.1.15,2013-05-21 05:50:00,
2013-05-21 01:00:00,53.8,48.8,29.61,West,280,9.0,17.0,83,0.00,,,0.23,Wunderground v.1.15,2013-05-21 06:00:00,
2013-05-21 01:10:00,53.7,48.7,29.60,West,279,10.0,17.0,83,0.00,,,0.00,Wunderground v.1.15,2013-05-21 06:10:00,
2013-05-21 01:20:00,53.6,48.2,29.60,WNW,295,11.0,17.0,82,0.00,,,0.00,Wunderground v.1.15,2013-05-21 06:20:00,
2013-05-21 01:30:00,53.5,48.1,29.60,West,272,13.0,17.0,82,0.00,,,0.00,Wunderground v.1.15,2013-05-21 06:30:00,
2013-05-21 01:35:00,53.3,47.9,29.59,WNW,290,13.0,17.0,82,0.00,,,0.00,Wunderground v.1.15,2013-05-21 06:35:00,
2013-05-21 01:45:00,53.1,48.1,29.59,West,266,14.0,17.0,83,0.00,,,0.00,Wunderground v.1.15,2013-05-21 06:45:00,
2013-05-21 01:50:00,52.9,47.9,29.59,WNW,284,13.0,17.0,83,0.00,,,0.00,Wunderground v.1.15,2013-05-21 06:50:00,
2013-05-21 02:00:00,52.7,47.7,29.60,West,273,14.0,18.0,83,0.00,,,0.00,Wunderground v.1.15,2013-05-21 07:00:00,
2013-05-21 02:10:00,52.5,47.8,29.59,WNW,283,16.0,16.0,84,0.00,,,0.00,Wunderground v.1.15,2013-05-21 07:10:00,
2013-05-21 02:20:00,52.5,47.8,29.60,West,262,14.0,17.0,84,0.00,,,0.00,Wunderground v.1.15,2013-05-21 07:20:00,
2013-05-21 02:25:00,52.6,47.9,29.60,WNW,284,13.0,17.0,84,0.00,,,0.00,Wunderground v.1.15,2013-05-21 07:25:00,
2013-05-21 02:35:00,52.7,48.0,29.60,West,269,11.0,17.0,84,0.00,,,0.00,Wunderground v.1.15,2013-05-21 07:35:00,
2013-05-21 02:40:00,52.7,48.0,29.60,West,276,12.0,12.0,84,0.00,,,0.00,Wunderground v.1.15,2013-05-21 07:40:00,
2013-05-21 02:50:00,52.5,47.8,29.60,WNW,285,12.0,17.0,84,0.00,,,0.00,Wunderground v.1.15,2013-05-21 07:50:00,
2013-05-21 03:00:00,52.4,47.7,29.60,West,270,12.0,17.0,84,0.00,,,0.00,Wunderground v.1.15,2013-05-21 08:00:00,
2013-05-21 03:10:00,52.4,47.7,29.60,West,278,13.0,13.0,84,0.00,,,0.00,Wunderground v.1.15,2013-05-21 08:10:00,
2013-05-21 03:20:00,52.2,47.8,29.61,WSW,249,9.0,17.0,85,0.00,,,0.00,Wunderground v.1.15,2013-05-21 08:20:00,
2013-05-21 03:25:00,52.1,47.7,29.61,West,263,10.0,17.0,85,0.00,,,0.00,Wunderground v.1.15,2013-05-21 08:25:00,
2013-05-21 03:30:00,52.0,47.6,29.61,West,259,11.0,17.0,85,0.00,,,0.00,Wunderground v.1.15,2013-05-21 08:30:00,
2013-05-21 03:40:00,51.8,47.7,29.61,West,260,12.0,17.0,86,0.00,,,0.00,Wunderground v.1.15,2013-05-21 08:40:00,
2013-05-21 03:50:00,51.7,47.6,29.61,WSW,253,10.0,17.0,86,0.00,,,0.00,Wunderground v.1.15,2013-05-21 08:50:00,
2013-05-21 04:00:00,51.7,47.6,29.61,West,272,12.0,12.0,86,0.00,,,0.00,Wunderground v.1.15,2013-05-21 09:00:00,
2013-05-21 04:10:00,51.4,47.0,29.61,West,261,12.0,17.0,85,0.00,,,0.00,Wunderground v.1.15,2013-05-21 09:10:00,
2013-05-21 04:20:00,51.1,46.7,29.61,West,267,13.0,17.0,85,0.00,,,0.00,Wunderground v.1.15,2013-05-21 09:20:00,
2013-05-21 04:25:00,51.2,47.2,29.61,West,262,13.0,17.0,86,0.00,,,0.00,Wunderground v.1.15,2013-05-21 09:25:00,
2013-05-21 04:35:00,50.6,46.9,29.61,WNW,288,13.0,17.0,87,0.00,,,0.00,Wunderground v.1.15,2013-05-21 09:35:00,
2013-05-21 04:40:00,50.3,46.6,29.61,West,274,12.0,12.0,87,0.00,,,0.00,Wunderground v.1.15,2013-05-21 09:40:00,
2013-05-21 04:50:00,50.3,46.9,29.61,West,263,11.0,17.0,88,0.00,,,0.00,Wunderground v.1.15,2013-05-21 09:50:00,
2013-05-21 05:00:00,50.3,46.6,29.61,West,272,13.0,13.0,87,0.00,,,0.00,Wunderground v.1.15,2013-05-21 10:00:00,
2013-05-21 05:10:00,50.3,46.3,29.61,West,267,14.0,14.0,86,0.00,,,0.00,Wunderground v.1.15,2013-05-21 10:10:00,
2013-05-21 05:15:00,50.3,46.3,29.60,West,266,14.0,17.0,86,0.00,,,0.00,Wunderground v.1.15,2013-05-21 10:15:00,
2013-05-21 05:25:00,49.9,46.2,29.61,West,277,13.0,17.0,87,0.00,,,0.00,Wunderground v.1.15,2013-05-21 10:25:00,
2013-05-21 05:30:00,49.8,46.1,29.61,West,273,13.0,19.0,87,0.00,,,0.00,Wunderground v.1.15,2013-05-21 10:30:00,
2013-05-21 05:40:00,49.9,46.5,29.61,West,277,13.0,13.0,88,0.00,,,0.00,Wunderground v.1.15,2013-05-21 10:40:00,
2013-05-21 05:50:00,49.8,46.1,29.60,West,273,13.0,13.0,87,0.00,,,0.00,Wunderground v.1.15,2013-05-21 10:50:00,
2013-05-21 06:00:00,49.9,45.9,29.60,West,277,13.0,20.0,86,0.00,,,0.00,Wunderground v.1.15,2013-05-21 11:00:00,
2013-05-21 06:05:00,50.0,46.0,29.60,WNW,284,13.0,20.0,86,0.00,,,0.00,Wunderground v.1.15,2013-05-21 11:05:00,
2013-05-21 06:15:00,50.1,45.8,29.60,West,271,15.0,15.0,85,0.00,,,0.00,Wunderground v.1.15,2013-05-21 11:15:00,
2013-05-21 06:25:00,50.1,45.8,29.59,West,279,16.0,20.0,85,0.00,,,0.00,Wunderground v.1.15,2013-05-21 11:25:00,
2013-05-21 06:30:00,50.1,45.8,29.59,West,275,17.0,20.0,85,0.00,,,0.00,Wunderground v.1.15,2013-05-21 11:30:00,
2013-05-21 06:40:00,49.9,45.6,29.60,WNW,283,18.0,20.0,85,0.00,,,0.00,Wunderground v.1.15,2013-05-21 11:40:00,
2013-05-21 06:50:00,50.0,45.7,29.59,WNW,291,16.0,20.0,85,0.00,,,0.00,Wunderground v.1.15,2013-05-21 11:50:00,
2013-05-21 07:00:00,50.1,45.8,29.60,West,275,16.0,16.0,85,0.00,,,0.00,Wunderground v.1.15,2013-05-21 12:00:00,
2013-05-21 07:10:00,50.0,45.4,29.60,West,277,16.0,20.0,84,0.00,,,0.00,Wunderground v.1.15,2013-05-21 12:10:00,
2013-05-21 07:15:00,50.0,45.4,29.60,West,274,17.0,21.0,84,0.00,,,0.00,Wunderground v.1.15,2013-05-21 12:15:00,
2013-05-21 07:25:00,50.0,45.4,29.61,WNW,292,16.0,21.0,84,0.00,,,0.00,Wunderground v.1.15,2013-05-21 12:25:00,
2013-05-21 07:30:00,50.0,45.7,29.61,WNW,285,17.0,17.0,85,0.00,,,0.00,Wunderground v.1.15,2013-05-21 12:30:00,
2013-05-21 07:40:00,50.3,45.6,29.61,WNW,282,16.0,20.0,84,0.00,,,0.00,Wunderground v.1.15,2013-05-21 12:40:00,
2013-05-21 07:50:00,50.4,45.7,29.61,West,262,15.0,23.0,84,0.00,,,0.00,Wunderground v.1.15,2013-05-21 12:50:00,
2013-05-21 08:00:00,50.3,45.6,29.62,West,273,18.0,18.0,84,0.00,,,0.00,Wunderground v.1.15,2013-05-21 13:00:00,
2013-05-21 08:10:00,50.3,45.6,29.62,West,279,17.0,17.0,84,0.00,,,0.00,Wunderground v.1.15,2013-05-21 13:10:00,
2013-05-21 08:15:00,50.2,45.6,29.62,WNW,282,15.0,20.0,84,0.00,,,0.00,Wunderground v.1.15,2013-05-21 13:15:00,
2013-05-21 08:20:00,50.2,45.6,29.63,West,263,16.0,16.0,84,0.00,,,0.00,Wunderground v.1.15,2013-05-21 13:20:00,
2013-05-21 08:30:00,50.4,45.7,29.63,West,261,15.0,20.0,84,0.00,,,0.00,Wunderground v.1.15,2013-05-21 13:30:00,
2013-05-21 08:40:00,50.7,46.0,29.62,West,263,16.0,16.0,84,0.00,,,0.00,Wunderground v.1.15,2013-05-21 13:40:00,
2013-05-21 08:50:00,50.6,45.6,29.63,West,272,18.0,18.0,83,0.00,,,0.00,Wunderground v.1.15,2013-05-21 13:50:00,
2013-05-21 09:00:00,50.8,45.8,29.63,West,267,19.0,19.0,83,0.00,,,0.00,Wunderground v.1.15,2013-05-21 14:00:00,
2013-05-21 09:10:00,50.7,45.7,29.62,West,273,17.0,23.0,83,0.00,,,0.00,Wunderground v.1.15,2013-05-21 14:10:00,
2013-05-21 09:20:00,50.3,46.0,29.62,West,270,18.0,20.0,85,0.00,,,0.00,Wunderground v.1.15,2013-05-21 14:20:00,
2013-05-21 09:25:00,50.2,45.9,29.63,West,281,17.0,20.0,85,0.00,,,0.00,Wunderground v.1.15,2013-05-21 14:25:00,
2013-05-21 09:30:00,50.1,45.8,29.63,West,277,17.0,20.0,85,0.00,,,0.00,Wunderground v.1.15,2013-05-21 14:30:00,
2013-05-21 09:40:00,50.6,46.3,29.62,West,278,18.0,22.0,85,0.00,,,0.00,Wunderground v.1.15,2013-05-21 14:40:00,
2013-05-21 09:50:00,51.0,46.0,29.63,West,280,18.0,21.0,83,0.00,,,0.00,Wunderground v.1.15,2013-05-21 14:50:00,
2013-05-21 10:00:00,51.2,46.2,29.63,West,271,19.0,20.0,83,0.00,,,0.00,Wunderground v.1.15,2013-05-21 15:00:00,
2013-05-21 10:10:00,51.2,46.2,29.63,West,276,20.0,20.0,83,0.00,,,0.00,Wunderground v.1.15,2013-05-21 15:10:00,
2013-05-21 10:20:00,51.6,46.6,29.63,WNW,283,18.0,20.0,83,0.00,,,0.00,Wunderground v.1.15,2013-05-21 15:20:00,
2013-05-21 10:30:00,51.7,46.7,29.62,West,271,20.0,20.0,83,0.00,,,0.00,Wunderground v.1.15,2013-05-21 15:30:00,
2013-05-21 10:40:00,51.8,47.1,29.62,West,274,21.0,21.0,84,0.00,,,0.00,Wunderground v.1.15,2013-05-21 15:40:00,
2013-05-21 10:50:00,51.9,47.5,29.61,WNW,294,22.0,24.0,85,0.00,,,0.00,Wunderground v.1.15,2013-05-21 15:50:00,
2013-05-21 10:55:00,52.2,47.8,29.61,WNW,286,20.0,25.0,85,0.00,,,0.00,Wunderground v.1.15,2013-05-21 15:55:00,
2013-05-21 11:00:00,51.9,47.8,29.61,WNW,284,20.0,20.0,86,0.00,,,0.00,Wunderground v.1.15,2013-05-21 16:00:00,
2013-05-21 11:10:00,52.3,47.9,29.61,WNW,284,19.0,19.0,85,0.00,,,0.00,Wunderground v.1.15,2013-05-21 16:10:00,
2013-05-21 11:20:00,52.5,48.1,29.61,WNW,289,21.0,21.0,85,0.00,,,0.00,Wunderground v.1.15,2013-05-21 16:20:00,
2013-05-21 11:30:00,52.6,47.9,29.61,WNW,286,20.0,23.0,84,0.00,,,0.00,Wunderground v.1.15,2013-05-21 16:30:00,
2013-05-21 11:40:00,52.7,48.0,29.61,NW,307,21.0,21.0,84,0.00,,,0.00,Wunderground v.1.15,2013-05-21 16:40:00,
2013-05-21 11:45:00,53.3,48.6,29.61,West,273,21.0,22.0,84,0.00,,,0.00,Wunderground v.1.15,2013-05-21 16:45:00,
2013-05-21 11:50:00,54.0,49.3,29.61,WNW,285,19.0,20.0,84,0.00,,,0.00,Wunderground v.1.15,2013-05-21 16:50:00,
2013-05-21 12:00:00,54.6,49.9,29.62,WNW,303,20.0,30.0,84,0.00,,,0.00,Wunderground v.1.15,2013-05-21 17:00:00,
2013-05-21 12:10:00,54.8,50.4,29.62,WNW,300,20.0,30.0,85,0.00,,,0.00,Wunderground v.1.15,2013-05-21 17:10:00,
2013-05-21 12:20:00,54.9,50.5,29.62,NW,315,21.0,21.0,85,0.00,,,0.00,Wunderground v.1.15,2013-05-21 17:20:00,
2013-05-21 12:25:00,54.8,50.1,29.62,WNW,303,19.0,30.0,84,0.00,,,0.00,Wunderground v.1.15,2013-05-21 17:25:00,
2013-05-21 12:35:00,54.8,50.7,29.62,WNW,287,20.0,30.0,86,0.00,,,0.00,Wunderground v.1.15,2013-05-21 17:35:00,
2013-05-21 12:40:00,54.8,50.4,29.63,WNW,294,20.0,30.0,85,0.00,,,0.00,Wunderground v.1.15,2013-05-21 17:40:00,
2013-05-21 12:50:00,54.8,50.7,29.63,West,281,19.0,19.0,86,0.00,,,0.00,Wunderground v.1.15,2013-05-21 17:50:00,
2013-05-21 13:00:00,54.4,50.3,29.63,NW,305,19.0,19.0,86,0.00,,,0.00,Wunderground v.1.15,2013-05-21 18:00:00,
2013-05-21 13:10:00,54.3,49.9,29.63,NW,305,17.0,17.0,85,0.00,,,0.00,Wunderground v.1.15,2013-05-21 18:10:00,
2013-05-21 13:20:00,54.5,49.4,29.63,WNW,293,18.0,18.0,83,0.00,,,0.00,Wunderground v.1.15,2013-05-21 18:20:00,
2013-05-21 13:30:00,54.4,49.7,29.64,WNW,302,19.0,30.0,84,0.00,,,0.00,Wunderground v.1.15,2013-05-21 18:30:00,
2013-05-21 13:35:00,54.8,49.7,29.64,WNW,296,18.0,30.0,83,0.00,,,0.00,Wunderground v.1.15,2013-05-21 18:35:00,
2013-05-21 13:40:00,55.0,49.3,29.64,NW,322,18.0,18.0,81,0.00,,,0.00,Wunderground v.1.15,2013-05-21 18:40:00,
2013-05-21 13:50:00,55.4,49.0,29.64,NW,319,18.0,30.0,79,0.00,,,0.00,Wunderground v.1.15,2013-05-21 18:50:00,
2013-05-21 14:00:00,55.8,49.0,29.65,WNW,300,19.0,30.0,78,0.00,,,0.00,Wunderground v.1.15,2013-05-21 19:00:00,
2013-05-21 14:10:00,55.8,49.0,29.65,NW,310,19.0,30.0,78,0.00,,,0.00,Wunderground v.1.15,2013-05-21 19:10:00,
2013-05-21 14:20:00,55.7,48.6,29.66,WNW,300,20.0,20.0,77,0.00,,,0.00,Wunderground v.1.15,2013-05-21 19:20:00,
2013-05-21 14:30:00,55.4,48.3,29.67,North,355,19.0,19.0,77,0.00,,,0.00,Wunderground v.1.15,2013-05-21 19:30:00,
2013-05-21 14:40:00,55.3,48.6,29.68,NNW,329,17.0,30.0,78,0.00,,,0.00,Wunderground v.1.15,2013-05-21 19:40:00,
2013-05-21 14:50:00,55.4,48.3,29.68,WNW,296,18.0,18.0,77,0.00,,,0.00,Wunderground v.1.15,2013-05-21 19:50:00,
2013-05-21 15:00:00,55.4,48.3,29.69,NW,316,18.0,30.0,77,0.00,,,0.00,Wunderground v.1.15,2013-05-21 20:00:00,
2013-05-21 15:05:00,55.4,48.0,29.69,NW,306,18.0,30.0,76,0.00,,,0.00,Wunderground v.1.15,2013-05-21 20:05:00,
2013-05-21 15:10:00,55.4,48.0,29.69,West,281,18.0,30.0,76,0.00,,,0.00,Wunderground v.1.15,2013-05-21 20:10:00,
2013-05-21 15:20:00,55.1,48.0,29.70,WNW,290,19.0,19.0,77,0.00,,,0.00,Wunderground v.1.15,2013-05-21 20:20:00,
2013-05-21 15:30:00,55.0,48.3,29.70,WNW,296,17.0,17.0,78,0.00,,,0.00,Wunderground v.1.15,2013-05-21 20:30:00,
2013-05-21 15:40:00,55.0,48.3,29.70,NNW,331,17.0,17.0,78,0.00,,,0.00,Wunderground v.1.15,2013-05-21 20:40:00,
2013-05-21 15:50:00,54.4,48.4,29.70,WNW,288,17.0,30.0,80,0.00,,,0.00,Wunderground v.1.15,2013-05-21 20:50:00,
2013-05-21 16:00:00,54.5,48.1,29.70,NW,311,17.0,17.0,79,0.00,,,0.00,Wunderground v.1.15,2013-05-21 21:00:00,
2013-05-21 16:05:00,54.8,48.4,29.70,NW,306,15.0,19.0,79,0.00,,,0.00,Wunderground v.1.15,2013-05-21 21:05:00,
2013-05-21 16:15:00,54.6,47.9,29.70,WNW,303,17.0,30.0,78,0.00,,,0.00,Wunderground v.1.15,2013-05-21 21:15:00,
2013-05-21 16:25:00,54.5,47.8,29.70,West,279,16.0,30.0,78,0.00,,,0.00,Wunderground v.1.15,2013-05-21 21:25:00,
2013-05-21 16:30:00,54.6,47.9,29.70,NW,312,17.0,17.0,78,0.00,,,0.00,Wunderground v.1.15,2013-05-21 21:30:00,
2013-05-21 16:40:00,54.6,48.2,29.69,NW,305,17.0,17.0,79,0.00,,,0.00,Wunderground v.1.15,2013-05-21 21:40:00,
2013-05-21 16:50:00,55.1,48.7,29.69,NW,317,15.0,30.0,79,0.00,,,0.00,Wunderground v.1.15,2013-05-21 21:50:00,
2013-05-21 17:00:00,54.7,48.3,29.70,North,5,14.0,30.0,79,0.00,,,0.00,Wunderground v.1.15,2013-05-21 22:00:00,
2013-05-21 17:05:00,54.9,48.2,29.70,WNW,296,14.0,30.0,78,0.00,,,0.00,Wunderground v.1.15,2013-05-21 22:05:00,
2013-05-21 17:15:00,55.5,48.4,29.70,NNW,348,12.0,30.0,77,0.00,,,0.00,Wunderground v.1.15,2013-05-21 22:15:00,
2013-05-21 17:20:00,55.3,48.2,29.70,NNW,343,12.0,30.0,77,0.00,,,0.00,Wunderground v.1.15,2013-05-21 22:20:00,
2013-05-21 17:30:00,55.8,49.4,29.70,NNW,346,13.0,30.0,79,0.00,,,0.00,Wunderground v.1.15,2013-05-21 22:30:00,
2013-05-21 17:40:00,54.9,48.2,29.69,NNW,333,13.0,30.0,78,0.00,,,0.00,Wunderground v.1.15,2013-05-21 22:40:00,
2013-05-21 17:50:00,54.8,48.1,29.69,NW,315,14.0,14.0,78,0.00,,,0.00,Wunderground v.1.15,2013-05-21 22:50:00,
2013-05-21 18:00:00,53.6,46.9,29.69,NW,324,14.0,14.0,78,0.00,,,0.00,Wunderground v.1.15,2013-05-21 23:00:00,
2013-05-21 18:05:00,53.5,46.5,29.69,WNW,285,13.0,27.0,77,0.00,,,0.00,Wunderground v.1.15,2013-05-21 23:05:00,
2013-05-21 18:15:00,53.2,46.9,29.69,North,355,13.0,27.0,79,0.00,,,0.00,Wunderground v.1.15,2013-05-21 23:15:00,
2013-05-21 18:25:00,53.0,47.3,29.71,NNE,24,10.0,27.0,81,0.00,,,0.00,Wunderground v.1.15,2013-05-21 23:25:00,
2013-05-21 18:30:00,52.9,46.9,29.71,NW,312,10.0,27.0,80,0.00,,,0.00,Wunderground v.1.15,2013-05-21 23:30:00,
2013-05-21 18:40:00,52.6,46.3,29.72,NW,325,11.0,27.0,79,0.00,,,0.00,Wunderground v.1.15,2013-05-21 23:40:00,
2013-05-21 18:50:00,52.8,46.5,29.74,NW,319,10.0,10.0,79,0.00,,,0.00,Wunderground v.1.15,2013-05-21 23:50:00,
2013-05-21 19:00:00,52.9,45.9,29.75,NW,316,9.0,9.0,77,0.00,,,0.00,Wunderground v.1.15,2013-05-22 00:00:00,
2013-05-21 19:10:00,52.9,46.2,29.75,NNW,344,7.0,27.0,78,0.00,,,0.00,Wunderground v.1.15,2013-05-22 00:10:00,
2013-05-21 19:15:00,52.7,46.0,29.76,NW,308,9.0,27.0,78,0.00,,,0.00,Wunderground v.1.15,2013-05-22 00:15:00,
2013-05-21 19:20:00,52.6,46.3,29.76,WNW,303,9.0,9.0,79,0.00,,,0.00,Wunderground v.1.15,2013-05-22 00:20:00,
2013-05-21 19:30:00,52.3,46.0,29.76,North,350,9.0,9.0,79,0.00,,,0.00,Wunderground v.1.15,2013-05-22 00:30:00,
2013-05-21 19:40:00,51.8,46.2,29.76,NW,310,11.0,27.0,81,0.00,,,0.00,Wunderground v.1.15,2013-05-22 00:40:00,
2013-05-21 19:50:00,51.5,46.2,29.77,NW,306,10.0,27.0,82,0.00,,,0.00,Wunderground v.1.15,2013-05-22 00:50:00,
2013-05-21 19:55:00,51.6,46.3,29.77,WNW,294,9.0,27.0,82,0.00,,,0.00,Wunderground v.1.15,2013-05-22 00:55:00,
2013-05-21 20:05:00,51.4,46.4,29.78,WNW,288,12.0,12.0,83,0.00,,,0.00,Wunderground v.1.15,2013-05-22 01:05:00,
2013-05-21 20:10:00,51.0,46.6,29.78,WNW,286,11.0,27.0,85,0.00,,,0.00,Wunderground v.1.15,2013-05-22 01:10:00,
2013-05-21 20:20:00,50.4,46.4,29.78,NW,305,11.0,27.0,86,0.00,,,0.00,Wunderground v.1.15,2013-05-22 01:20:00,
2013-05-21 20:30:00,50.0,46.3,29.78,NW,308,11.0,27.0,87,0.00,,,0.00,Wunderground v.1.15,2013-05-22 01:30:00,
2013-05-21 20:40:00,49.9,46.5,29.78,WNW,288,9.0,27.0,88,0.00,,,0.00,Wunderground v.1.15,2013-05-22 01:40:00,
2013-05-21 20:50:00,49.6,46.2,29.78,WNW,300,11.0,27.0,88,0.00,,,0.00,Wunderground v.1.15,2013-05-22 01:50:00,
2013-05-21 20:55:00,49.5,46.1,29.78,WNW,288,12.0,27.0,88,0.00,,,0.00,Wunderground v.1.15,2013-05-22 01:55:00,
2013-05-21 21:05:00,49.4,46.0,29.79,NW,315,12.0,27.0,88,0.00,,,0.00,Wunderground v.1.15,2013-05-22 02:05:00,
2013-05-21 21:10:00,49.2,45.8,29.79,West,281,13.0,13.0,88,0.00,,,0.00,Wunderground v.1.15,2013-05-22 02:10:00,
2013-05-21 21:20:00,48.9,45.5,29.79,NW,317,13.0,27.0,88,0.00,,,0.00,Wunderground v.1.15,2013-05-22 02:20:00,
2013-05-21 21:30:00,49.0,45.6,29.79,NW,312,13.0,27.0,88,0.00,,,0.00,Wunderground v.1.15,2013-05-22 02:30:00,
2013-05-21 21:40:00,49.0,45.6,29.80,NNW,328,12.0,27.0,88,0.00,,,0.00,Wunderground v.1.15,2013-05-22 02:40:00,
2013-05-21 21:50:00,48.8,45.4,29.80,NNW,327,12.0,12.0,88,0.00,,,0.00,Wunderground v.1.15,2013-05-22 02:50:00,
2013-05-21 22:00:00,48.7,45.3,29.80,WNW,300,11.0,27.0,88,0.00,,,0.00,Wunderground v.1.15,2013-05-22 03:00:00,
2013-05-21 22:05:00,48.7,45.6,29.80,NW,315,11.0,27.0,89,0.00,,,0.00,Wunderground v.1.15,2013-05-22 03:05:00,
2013-05-21 22:10:00,48.8,45.7,29.80,WNW,299,12.0,27.0,89,0.00,,,0.00,Wunderground v.1.15,2013-05-22 03:10:00,
2013-05-21 22:20:00,48.7,45.6,29.80,WNW,286,12.0,12.0,89,0.00,,,0.00,Wunderground v.1.15,2013-05-22 03:20:00,
2013-05-21 22:30:00,48.5,45.4,29.79,WNW,300,12.0,12.0,89,0.00,,,0.00,Wunderground v.1.15,2013-05-22 03:30:00,
2013-05-21 22:35:00,48.5,45.4,29.79,WNW,297,11.0,27.0,89,0.00,,,0.00,Wunderground v.1.15,2013-05-22 03:35:00,
2013-05-21 22:40:00,48.6,45.5,29.79,WNW,291,10.0,27.0,89,0.00,,,0.00,Wunderground v.1.15,2013-05-22 03:40:00,
2013-05-21 22:50:00,48.3,45.2,29.79,NW,326,13.0,13.0,89,0.00,,,0.00,Wunderground v.1.15,2013-05-22 03:50:00,
2013-05-21 23:00:00,48.1,45.3,29.79,WNW,303,13.0,27.0,90,0.00,,,0.00,Wunderground v.1.15,2013-05-22 04:00:00,
2013-05-21 23:05:00,48.0,45.2,29.79,NW,310,13.0,27.0,90,0.00,,,0.00,Wunderground v.1.15,2013-05-22 04:05:00,
2013-05-21 23:10:00,47.8,45.0,29.78,WNW,294,13.0,13.0,90,0.00,,,0.00,Wunderground v.1.15,2013-05-22 04:10:00,
2013-05-21 23:15:00,47.8,45.0,29.78,WNW,299,13.0,27.0,90,0.00,,,0.00,Wunderground v.1.15,2013-05-22 04:15:00,
2013-05-21 23:20:00,47.8,45.0,29.77,WNW,298,14.0,14.0,90,0.00,,,0.00,Wunderground v.1.15,2013-05-22 04:20:00,
2013-05-21 23:30:00,47.6,44.8,29.77,WNW,300,13.0,27.0,90,0.00,,,0.00,Wunderground v.1.15,2013-05-22 04:30:00,
2013-05-21 23:35:00,47.7,44.9,29.77,WNW,294,14.0,27.0,90,0.00,,,0.00,Wunderground v.1.15,2013-05-22 04:35:00,
2013-05-21 23:40:00,47.7,44.6,29.77,West,269,15.0,15.0,89,0.00,,,0.00,Wunderground v.1.15,2013-05-22 04:40:00,
2013-05-21 23:50:00,47.7,44.6,29.77,NW,319,13.0,13.0,89,0.00,,,0.00,Wunderground v.1.15,2013-05-22 04:50:00,
2013-05-21 23:55:00,47.7,44.6,29.77,NNE,18,13.0,27.0,89,0.00,,,0.00,Wunderground v.1.15,2013-05-22 04:55:00,